Погода в Белвью

США     47°36′01″N   122°09′32″W
темп.,
°C
ветер,
м/с
пор.,
м/с
влажн.,
%
обл.,
%
осадки,
мм/ч
давл.,
гПа
погр.,
м
31 июля, сб
сб3123:00+23с2451100 0.0 1014149
02:00+21ссв1255100 0.0 101546
05:00+21с0155100 0.0 101528
08:00+22с1247100 0.0 1016186
11:00+26ссз2334100 0.0 1017753
14:00+28св2430100 0.0 1017471
17:00+28с3434100 0.0 1016451
20:00+24ссв2546100 0.0 1015215
1 августа, вс
вс123:00+22ссв1255100 0.0 1016174
02:00+21ссв2255100 0.0 101693
05:00+21вюв0057100 0.0 101620
08:00+23зсз1156100 0.0 1017208
11:00+29сз124076 0.0 10171025
14:00+29сз323839 0.0 1017918
17:00+30ссз32368 0.0 1016807
20:00+26ссз3546100 0.0 1016247
2 августа, пн
пн223:00+21ссв2461100 0.0 1018152
02:00+19с12685 0.0 101891
05:00+17ссз117555 0.0 101958
08:00+20зсз00620 0.0 1020309
11:00+28ссв23360 0.0 1019819
14:00+32с33280 0.0 10181129
17:00+31с44270 0.0 1017935
20:00+26ссв372720 0.0 1017371
3 августа, вт
вт323:00+20ссв25412 0.0 1018212
02:00+18ссв22500 0.0 101895
05:00+15св125655 0.0 101869
08:00+19ссв124594 0.0 1018259
11:00+27с23260 0.0 1017759
14:00+31с33230 0.0 1015982
17:00+30ссз33243 0.0 1014754
20:00+25с36350 0.0 1014282
4 августа, ср
ср423:00+20ссв24530 0.0 1015149
02:00+17св12610 0.0 101561
05:00+15ссв11670 0.0 101530
08:00+19ссв12520 0.0 1016245
11:00+27с34270 0.0 1014738
14:00+30ссз44220 0.0 1013820
17:00+30ссз46223 0.0 1011766
20:00+24ссв49360 0.0 1011416